Starlink 33650

operational
NORAD ID: 63321 Int'l Des: 2025-057 Owner: SPXS Country: US Constellation: starlink
LEOCIRCULAR

关于 Starlink 33650

正在加载描述...

实时位置

正在加载3D地球...

即将过境

高度历史

Altitude vs Time

uPlot chart will show altitude changes over time

两行轨道根数

1 63321U 25057Q 25305.55602027 .00035901 00000-0 13077-2 0 9994
2 63321 43.0033 34.2598 0000341 188.5674 171.5172 15.27583216 36146
Epoch: Nov 1, 2025 • Age: 23 hours

当前状态

高度 482.0 km
速度 7.63 km/s
星下点 3.13°N, 17.62°W
发射日期 Mar 18, 2025
运行时间 0.6 years
类型 internet

技术详情

分类 Payload
质量 575.00 kg
干质量 530.00 kg
总质量 575.00 kg
长度 0.30 m
直径 4.10 m
跨度 29.00 m
形状 Box + pan
制造商 SPXS
平台类型 Starlink V2MO
阶段状态 In Orbit
所有者/国家 SPXS/US

大型星座

Loading constellations...